Precipitable_Water
0.54 0.59 0.70 0.84 0.91 1.07 1.12 1.06 0.91 0.86 0.81 0.81 0.92 0.92 0.86 0.80 0.74 0.71 0.74 0.77 0.80 0.87 0.89 0.90 0.88 0.86 0.79 0.63 0.67 0.88 0.90 0.93 1.03 1.01 0.86 0.80 0.67 0.60 0.45 0.48 0.49 0.45 0.46 0.50 0.54 0.56 0.59
0.54 0.54 0.58 0.64 0.74 0.80 0.95 1.12 1.13 0.94 0.88 0.79 0.82 0.94 0.86 0.83 0.78 0.69 0.73 0.74 0.79 0.83 0.91 0.90 0.89 0.91 0.68 0.41 0.67 0.81 0.84 0.83 0.81 0.85 0.80 0.78 0.66 0.66 0.56 0.52 0.47 0.52 0.51 0.49 0.54 0.54 0.54
0.48 0.50 0.51 0.54 0.55 0.66 0.70 0.99 1.13 1.11 0.94 0.88 0.82 0.83 0.91 0.85 0.82 0.73 0.71 0.75 0.80 0.83 0.85 0.87 0.87 0.78 0.60 0.51 0.72 0.72 0.75 0.77 0.78 0.78 0.64 0.72 0.76 0.64 0.66 0.52 0.60 0.56 0.42 0.46 0.48 0.50 0.49
0.49 0.51 0.52 0.50 0.53 0.55 0.61 0.75 0.98 1.14 1.06 0.94 0.87 0.84 0.89 0.87 0.86 0.76 0.68 0.73 0.81 0.82 0.90 0.90 0.89 0.78 0.49 0.73 0.76 0.70 0.70 0.69 0.76 0.80 0.72 0.75 0.82 0.71 0.67 0.70 0.61 0.52 0.49 0.33 0.41 0.45 0.54
0.44 0.46 0.46 0.51 0.51 0.55 0.57 0.62 0.76 1.00 1.09 1.03 0.92 0.91 0.88 0.90 0.86 0.78 0.71 0.73 0.74 0.77 0.87 0.89 0.79 0.67 0.49 0.78 0.64 0.67 0.70 0.60 0.65 0.68 0.73 0.73 0.70 0.59 0.60 0.51 0.44 0.47 0.31 0.35 0.41 0.52 0.50
0.42 0.41 0.41 0.43 0.50 0.52 0.53 0.54 0.64 0.75 0.92 1.10 0.99 0.92 0.98 0.92 0.90 0.81 0.72 0.83 0.78 0.79 0.80 0.82 0.75 0.54 0.59 0.51 0.61 0.64 0.69 0.67 0.60 0.59 0.58 0.57 0.56 0.49 0.48 0.44 0.27 0.34 0.37 0.39 0.37 0.46 0.52
0.43 0.43 0.41 0.41 0.43 0.47 0.51 0.53 0.56 0.66 0.86 1.00 1.08 0.98 1.00 1.00 0.91 0.85 0.76 0.71 0.52 0.50 0.60 0.44 0.48 0.48 0.50 0.62 0.68 0.60 0.64 0.60 0.58 0.52 0.40 0.47 0.40 0.34 0.41 0.46 0.46 0.45 0.40 0.39 0.44 0.51 0.45
0.43 0.43 0.43 0.44 0.44 0.44 0.49 0.51 0.55 0.54 0.69 0.88 1.04 1.05 1.05 1.02 1.01 0.90 0.80 0.54 0.52 0.56 0.37 0.54 0.55 0.54 0.59 0.62 0.46 0.55 0.65 0.48 0.47 0.37 0.45 0.40 0.30 0.42 0.48 0.46 0.42 0.39 0.36 0.35 0.41 0.47 0.45
0.43 0.46 0.44 0.46 0.41 0.45 0.49 0.51 0.54 0.59 0.62 0.74 1.02 1.08 1.05 1.07 0.97 0.90 0.72 0.63 0.75 0.70 0.37 0.39 0.47 0.46 0.49 0.55 0.46 0.48 0.57 0.51 0.43 0.38 0.39 0.33 0.37 0.45 0.42 0.39 0.37 0.37 0.34 0.33 0.33 0.39 0.42
0.46 0.47 0.43 0.45 0.41 0.48 0.51 0.57 0.58 0.60 0.59 0.76 0.91 1.04 1.07 1.10 0.90 0.83 0.69 0.79 0.80 0.78 0.31 0.29 0.37 0.46 0.51 0.54 0.41 0.56 0.60 0.51 0.46 0.38 0.43 0.40 0.46 0.43 0.40 0.37 0.40 0.31 0.43 0.40 0.36 0.32 0.23
0.48 0.49 0.48 0.48 0.42 0.48 0.54 0.60 0.64 0.62 0.60 0.72 0.96 1.05 1.05 1.08 0.84 0.76 0.71 0.83 0.83 0.65 0.16 0.34 0.41 0.65 0.60 0.45 0.48 0.51 0.66 0.56 0.42 0.43 0.45 0.38 0.41 0.40 0.37 0.37 0.44 0.36 0.44 0.39 0.37 0.34 0.31
0.51 0.50 0.51 0.49 0.43 0.45 0.55 0.61 0.69 0.63 0.60 0.71 0.89 0.97 1.07 1.00 0.87 0.86 0.87 0.80 0.72 0.31 0.16 0.31 0.44 0.42 0.44 0.47 0.49 0.54 0.56 0.63 0.62 0.49 0.48 0.44 0.52 0.47 0.42 0.44 0.44 0.48 0.43 0.41 0.40 0.35 0.22
0.52 0.52 0.51 0.47 0.46 0.46 0.63 0.66 0.69 0.65 0.64 0.71 0.85 0.95 0.97 1.02 0.72 0.87 0.81 0.66 0.33 0.21 0.32 0.29 0.32 0.40 0.39 0.40 0.43 0.48 0.46 0.45 0.40 0.34 0.32 0.40 0.39 0.47 0.49 0.38 0.44 0.41 0.36 0.26 0.25 0.24 0.20
0.51 0.51 0.52 0.49 0.47 0.52 0.60 0.64 0.69 0.68 0.70 0.71 0.85 0.89 0.90 1.00 0.99 0.91 0.69 0.43 0.22 0.26 0.27 0.39 0.38 0.40 0.33 0.39 0.41 0.45 0.44 0.38 0.45 0.41 0.34 0.28 0.25 0.39 0.46 0.39 0.35 0.37 0.33 0.25 0.18 0.20 0.22
0.54 0.54 0.52 0.47 0.47 0.49 0.58 0.62 0.67 0.71 0.71 0.73 0.79 0.84 0.78 0.98 0.95 0.85 0.52 0.27 0.24 0.25 0.33 0.34 0.38 0.32 0.34 0.41 0.43 0.44 0.40 0.32 0.35 0.42 0.30 0.28 0.28 0.41 0.42 0.44 0.44 0.37 0.31 0.33 0.27 0.31 0.27
0.53 0.54 0.54 0.48 0.51 0.48 0.56 0.61 0.66 0.72 0.76 0.76 0.70 0.69 0.71 1.01 0.91 0.73 0.45 0.27 0.29 0.37 0.41 0.39 0.28 0.36 0.31 0.37 0.38 0.39 0.30 0.34 0.35 0.40 0.44 0.35 0.24 0.35 0.39 0.45 0.44 0.38 0.41 0.29 0.30 0.19 0.19
0.53 0.52 0.53 0.50 0.50 0.48 0.53 0.59 0.68 0.72 0.74 0.80 0.70 0.55 0.77 1.00 0.86 0.60 0.33 0.30 0.34 0.44 0.48 0.41 0.36 0.36 0.38 0.39 0.42 0.31 0.28 0.32 0.36 0.35 0.42 0.40 0.33 0.29 0.37 0.31 0.27 0.33 0.30 0.34 0.33 0.27 0.18
0.53 0.50 0.52 0.48 0.50 0.44 0.50 0.57 0.66 0.73 0.76 0.77 0.61 0.42 0.84 0.91 0.52 0.51 0.39 0.35 0.42 0.43 0.52 0.49 0.47 0.45 0.43 0.46 0.40 0.31 0.28 0.33 0.41 0.39 0.34 0.40 0.35 0.25 0.28 0.39 0.42 0.40 0.32 0.32 0.27 0.21 0.23
0.51 0.49 0.52 0.48 0.49 0.43 0.47 0.59 0.65 0.74 0.79 0.69 0.54 0.58 0.84 0.79 0.39 0.40 0.42 0.39 0.48 0.47 0.49 0.47 0.45 0.52 0.57 0.47 0.34 0.35 0.37 0.42 0.45 0.40 0.38 0.43 0.36 0.26 0.29 0.38 0.44 0.36 0.36 0.33 0.31 0.34 0.23
0.50 0.48 0.51 0.49 0.46 0.41 0.48 0.59 0.65 0.74 0.79 0.75 0.58 0.45 0.59 0.65 0.60 0.46 0.36 0.40 0.43 0.55 0.50 0.53 0.54 0.59 0.53 0.45 0.43 0.36 0.39 0.44 0.45 0.47 0.52 0.53 0.42 0.35 0.27 0.33 0.40 0.33 0.32 0.31 0.29 0.24 0.22
0.48 0.47 0.50 0.49 0.42 0.40 0.51 0.59 0.67 0.78 0.80 0.73 0.60 0.50 0.54 0.40 0.47 0.43 0.47 0.46 0.43 0.44 0.54 0.58 0.52 0.54 0.52 0.40 0.39 0.38 0.43 0.48 0.51 0.55 0.55 0.52 0.37 0.41 0.42 0.43 0.44 0.38 0.36 0.31 0.26 0.24 0.24
0.45 0.46 0.50 0.47 0.48 0.39 0.51 0.61 0.71 0.80 0.83 0.73 0.59 0.55 0.58 0.51 0.53 0.47 0.47 0.43 0.43 0.47 0.51 0.50 0.51 0.55 0.57 0.45 0.41 0.35 0.42 0.45 0.45 0.55 0.53 0.56 0.40 0.44 0.40 0.46 0.43 0.38 0.40 0.40 0.35 0.33 0.35
0.45 0.44 0.48 0.49 0.48 0.42 0.50 0.62 0.74 0.80 0.82 0.69 0.74 0.80 0.62 0.53 0.49 0.45 0.45 0.45 0.45 0.53 0.57 0.59 0.59 0.57 0.53 0.54 0.57 0.55 0.58 0.60 0.57 0.53 0.52 0.50 0.45 0.40 0.35 0.50 0.46 0.35 0.38 0.39 0.43 0.45 0.46
0.45 0.45 0.47 0.47 0.48 0.41 0.50 0.63 0.74 0.80 0.83 0.78 0.77 0.74 0.60 0.46 0.48 0.46 0.51 0.54 0.50 0.55 0.51 0.55 0.61 0.58 0.63 0.75 0.70 0.63 0.62 0.60 0.60 0.58 0.62 0.52 0.48 0.45 0.39 0.47 0.32 0.51 0.61 0.56 0.48 0.50 0.56
0.45 0.46 0.46 0.49 0.43 0.41 0.52 0.63 0.75 0.80 0.85 0.81 0.85 0.76 0.63 0.47 0.51 0.51 0.53 0.54 0.59 0.61 0.57 0.53 0.56 0.62 0.75 0.69 0.52 0.43 0.47 0.48 0.49 0.57 0.54 0.60 0.52 0.43 0.40 0.38 0.44 0.50 0.62 0.59 0.53 0.53 0.62
0.46 0.43 0.46 0.47 0.41 0.41 0.53 0.64 0.73 0.79 0.83 0.83 0.86 0.92 0.75 0.57 0.51 0.61 0.58 0.57 0.53 0.54 0.56 0.54 0.63 0.76 0.77 0.62 0.51 0.36 0.31 0.36 0.35 0.41 0.53 0.54 0.54 0.44 0.41 0.34 0.28 0.42 0.62 0.72 0.69 0.47 0.67
0.47 0.42 0.41 0.45 0.43 0.40 0.51 0.63 0.73 0.78 0.82 0.83 0.86 0.96 0.76 0.57 0.62 0.62 0.54 0.52 0.60 0.58 0.49 0.50 0.61 0.65 0.74 0.55 0.44 0.37 0.34 0.42 0.31 0.34 0.35 0.40 0.43 0.37 0.37 0.35 0.38 0.49 0.53 0.60 0.42 0.40 0.62
0.45 0.45 0.43 0.43 0.45 0.37 0.48 0.61 0.71 0.77 0.82 0.83 0.81 0.94 0.77 0.61 0.65 0.71 0.68 0.60 0.63 0.62 0.49 0.59 0.61 0.64 0.60 0.50 0.47 0.45 0.39 0.40 0.37 0.41 0.39 0.36 0.33 0.33 0.36 0.33 0.29 0.56 0.50 0.43 0.47 0.52 0.56
0.43 0.44 0.39 0.39 0.45 0.38 0.45 0.57 0.68 0.75 0.80 0.86 0.76 0.96 0.98 0.72 0.68 0.80 0.77 0.79 0.77 0.76 0.62 0.67 0.64 0.65 0.66 0.56 0.53 0.55 0.43 0.47 0.41 0.32 0.50 0.36 0.40 0.38 0.39 0.38 0.52 0.59 0.55 0.56 0.55 0.53 0.56
Wind_Speed
29 30 30 29 29 28 26 29 28 28 27 27 27 26 25 23 23 22 21 20 19 18 18 18 18 18 19 19 20 16 14 13 14 18 19 19 19 19 21 22 25 28 26 27 26 27 28
29 29 30 31 31 30 30 27 29 29 30 28 28 28 26 25 24 23 22 21 19 19 18 17 18 18 19 20 20 20 17 17 16 16 18 19 19 21 22 22 25 25 25 27 28 30 29
29 29 29 29 30 31 30 30 28 29 30 30 30 29 28 27 25 24 23 21 20 20 19 18 17 17 19 21 18 18 18 18 19 19 20 22 22 22 20 23 25 26 29 30 29 27 28
32 31 31 31 31 30 31 31 31 28 30 31 32 31 30 29 27 25 24 23 22 21 20 19 18 17 18 18 20 20 19 19 20 20 19 19 20 23 25 23 23 23 25 26 26 28 28
34 34 34 33 32 31 31 32 33 31 29 32 33 33 32 30 29 27 26 24 22 22 21 20 19 18 20 18 19 21 21 20 19 20 20 20 20 21 21 23 24 24 26 25 24 26 27
36 37 37 36 35 34 33 33 34 35 32 31 34 33 34 32 30 28 27 25 23 22 21 20 21 19 20 16 16 17 19 19 19 19 20 21 21 22 22 22 25 22 24 24 26 24 25
40 40 40 39 38 37 36 34 35 36 35 32 33 35 34 35 32 29 27 24 22 23 25 23 20 18 17 17 17 18 19 19 19 20 21 22 24 26 26 26 26 26 28 29 26 25 26
43 43 43 41 41 40 38 36 35 35 37 36 34 36 36 34 33 31 29 26 24 22 23 28 28 27 22 21 21 20 19 20 22 23 21 23 29 27 26 27 29 30 31 32 32 30 30
45 46 46 45 44 42 39 37 36 35 36 38 33 37 37 36 33 33 31 28 24 23 23 24 26 28 26 25 23 23 22 22 22 23 24 27 24 25 28 29 29 29 30 31 32 28 33
47 49 49 47 44 41 38 36 35 34 33 35 35 36 38 37 34 32 29 29 26 21 20 21 21 22 23 24 25 25 23 21 23 25 27 30 31 30 28 29 28 33 27 29 30 27 29
50 50 49 46 43 38 35 33 32 31 32 33 30 33 38 40 33 32 27 26 24 19 17 17 18 17 17 19 17 18 21 22 24 24 23 26 25 27 32 32 27 28 26 28 29 29 29
51 50 48 46 42 35 31 30 28 28 29 32 34 31 30 40 35 32 29 26 20 15 20 16 15 16 16 18 17 16 19 23 21 26 29 29 25 26 27 28 31 26 26 28 26 27 33
51 48 46 44 40 29 25 24 23 24 26 30 32 30 27 40 34 33 32 26 19 19 15 16 16 16 17 16 19 18 19 21 22 22 26 27 32 27 27 25 25 27 26 22 23 27 29
50 47 45 41 33 23 22 21 22 19 21 28 31 32 26 35 35 34 33 25 20 18 18 13 13 13 15 15 17 19 19 22 25 23 22 24 25 29 26 26 23 26 27 25 23 22 25
49 46 42 39 28 20 20 21 18 16 17 26 29 28 27 37 38 35 32 26 24 19 16 15 13 14 16 16 15 17 20 21 20 24 22 19 22 19 21 26 24 20 24 30 28 26 20
48 45 41 35 23 19 19 17 18 16 10 22 25 27 25 39 36 32 28 27 22 19 16 15 14 14 13 13 14 13 12 12 14 13 16 14 15 16 16 16 21 25 16 18 21 19 18
48 43 38 30 22 17 17 16 17 14 9 18 26 22 24 37 33 28 26 24 22 19 17 15 15 14 13 12 13 12 10 10 9 7 11 10 10 9 10 16 17 19 26 22 19 21 17
48 43 36 28 21 16 16 15 14 8 5 22 24 20 31 39 27 25 22 22 21 20 19 15 13 14 14 12 11 11 12 12 9 7 9 12 10 13 18 14 17 20 21 28 19 18 21
47 42 35 28 20 16 15 13 10 4 5 18 23 19 33 36 21 23 19 22 18 17 16 14 14 13 12 11 9 9 9 11 13 10 8 9 9 10 10 12 18 20 20 26 27 17 21
47 41 33 26 19 13 10 8 8 5 10 15 23 18 27 32 19 22 24 22 19 16 16 16 10 11 10 11 11 6 7 6 8 11 10 8 11 12 12 9 3 9 19 28 28 24 21
46 39 31 24 17 9 7 6 7 3 10 20 21 21 26 28 22 24 25 19 19 15 14 14 11 14 11 9 10 9 9 9 6 6 7 9 10 11 15 16 13 11 13 24 27 28 22
45 37 29 20 11 6 4 3 3 2 12 17 17 25 27 21 23 22 25 21 17 17 14 13 12 11 13 11 10 5 5 5 5 5 6 6 7 6 8 12 18 17 17 17 24 25 24
44 34 25 13 8 4 1 1 2 3 11 17 15 20 24 22 22 22 20 19 18 15 15 15 14 13 12 13 14 14 8 6 5 3 4 3 4 4 7 4 6 7 21 20 21 22 20
42 31 19 10 6 3 1 0 2 3 11 12 15 18 19 20 23 23 17 18 16 14 13 11 15 15 10 8 9 10 10 9 7 6 3 0 1 2 2 3 3 1 6 17 20 19 19
42 29 16 10 7 4 3 3 4 6 8 11 11 21 18 16 20 21 20 14 14 14 14 15 15 15 12 9 9 9 7 7 7 7 8 3 2 4 5 5 6 12 11 13 16 11 17
42 28 16 11 8 7 7 6 4 7 7 11 14 17 19 15 18 16 19 16 13 12 10 10 10 13 13 12 11 10 8 6 4 2 5 5 2 1 4 4 6 6 11 12 13 7 17
41 29 17 10 9 8 9 8 7 6 8 10 17 16 16 16 15 16 15 15 13 10 9 9 10 12 16 16 15 12 11 7 6 5 7 6 4 4 1 1 1 3 6 10 8 5 12
41 30 17 11 10 10 11 10 8 7 9 8 17 18 17 15 15 15 15 13 12 11 9 8 8 10 11 15 14 12 11 11 8 7 7 8 5 5 4 2 1 3 5 6 4 3 9
40 30 18 11 11 12 13 12 9 9 10 9 15 14 14 14 14 15 14 13 12 11 9 9 8 8 11 13 14 10 10 8 9 8 9 8 8 6 7 6 4 4 4 3 3 3 6
Wind_Direction
309 303 298 297 294 293 290 278 273 266 264 259 254 252 252 250 247 244 243 243 243 242 242 242 243 242 241 246 248 253 254 255 248 242 247 251 253 253 253 252 249 248 248 249 249 249 251
317 312 304 299 293 291 284 287 273 266 261 258 254 249 249 248 245 244 242 242 242 243 243 243 244 243 245 249 252 250 252 252 251 249 250 250 254 255 259 256 250 252 252 250 249 250 251
321 317 313 306 298 292 285 278 282 268 261 257 252 248 246 246 243 242 241 241 242 242 243 243 245 247 249 249 253 249 251 252 253 252 256 259 257 257 259 259 255 255 255 253 248 249 251
323 319 315 310 304 297 286 278 274 274 263 256 250 247 245 243 242 241 240 240 242 243 242 243 246 249 252 253 251 252 252 255 253 253 257 258 257 256 256 262 260 257 253 251 251 245 249
323 320 316 311 306 300 291 280 272 269 268 257 250 245 242 241 239 239 238 239 241 242 242 243 246 251 256 256 253 253 253 254 254 254 255 257 259 258 258 258 261 251 255 252 256 248 248
324 320 316 311 307 301 294 284 273 266 262 262 249 245 240 238 237 237 235 236 239 240 240 243 248 253 252 252 252 256 249 248 255 257 259 257 258 258 256 253 254 258 255 253 249 250 250
324 321 317 311 305 300 294 287 278 264 259 259 251 242 237 234 234 233 230 232 239 243 240 241 244 246 252 248 251 259 256 250 256 259 256 261 257 255 255 255 258 261 261 258 256 256 257
325 322 319 313 306 300 293 285 277 267 257 252 250 239 234 231 230 228 227 233 237 241 247 245 247 248 253 257 257 259 253 253 256 257 258 262 260 260 260 257 257 257 259 258 258 257 260
325 323 320 314 309 301 293 285 276 269 257 247 250 236 231 227 225 225 228 231 235 244 250 252 247 249 251 252 256 256 252 255 259 257 257 257 263 260 258 257 256 256 254 256 257 260 259
326 324 321 316 309 303 295 288 276 265 260 246 244 235 226 221 221 222 226 228 232 242 252 249 246 252 246 249 260 252 247 255 261 258 259 265 261 259 261 257 252 257 252 254 255 253 252
328 325 323 320 314 305 298 293 278 266 256 242 239 230 224 216 218 218 223 219 223 235 250 240 241 248 240 236 255 256 251 259 260 260 259 264 263 256 254 254 252 256 254 252 251 250 254
329 326 325 322 319 307 301 294 287 268 257 238 228 227 226 213 215 216 211 209 215 230 243 236 237 236 235 243 256 265 257 261 271 262 260 263 264 259 258 258 249 257 253 253 252 248 248
331 329 327 325 321 311 308 302 293 273 258 230 220 217 222 207 212 205 202 203 217 227 234 234 236 235 240 247 256 259 259 260 267 266 265 262 257 261 259 255 251 243 246 251 243 239 246
334 331 330 328 324 314 313 315 307 283 256 222 214 214 213 208 201 196 198 207 220 229 227 233 232 230 245 249 261 261 266 269 265 269 272 262 263 247 251 250 249 241 235 238 244 244 248
335 333 332 331 325 315 316 317 320 300 254 215 211 205 214 196 194 197 199 214 219 222 220 219 224 244 249 253 265 263 268 276 275 257 263 266 264 260 254 243 240 236 233 235 245 249 253
336 334 332 331 324 318 320 322 326 311 255 205 202 200 206 187 190 196 205 214 216 219 216 222 230 237 244 247 255 265 270 296 271 253 242 259 261 254 252 242 238 234 233 230 227 234 239
338 336 333 331 323 317 322 323 328 320 221 209 192 191 192 184 185 197 211 211 213 217 217 220 235 242 250 253 257 262 271 291 255 261 225 234 245 262 244 237 232 233 235 233 231 228 232
339 337 334 329 321 309 317 320 330 339 237 189 186 193 182 178 184 200 205 202 207 212 219 229 241 241 244 251 259 263 257 264 251 242 234 235 255 258 249 253 238 236 234 222 228 228 228
341 338 335 330 318 308 305 316 320 315 173 178 179 181 180 182 190 193 196 200 203 207 213 220 232 238 239 253 263 243 253 261 239 231 225 232 262 270 270 256 248 240 230 218 220 229 221
342 340 336 331 319 303 299 313 321 298 191 184 180 173 176 189 202 198 193 197 198 211 224 219 238 229 238 247 239 258 259 281 238 236 242 243 272 266 268 274 297 235 219 211 214 220 222
343 340 337 334 330 299 291 301 325 279 189 178 182 183 181 185 192 187 193 197 200 208 213 214 231 235 230 240 229 244 253 268 270 242 250 263 276 265 268 266 261 230 207 202 209 213 210
344 341 339 337 339 320 282 306 347 120 164 180 186 183 181 185 189 188 194 206 205 210 215 213 224 229 230 235 224 235 251 244 256 245 248 267 298 301 291 263 242 228 209 209 207 206 220
344 342 341 345 348 358 151 90 66 140 172 173 181 183 181 185 190 191 198 203 213 210 221 225 221 232 240 242 238 238 257 274 279 228 247 275 308 324 317 336 138 200 216 207 203 203 201
345 342 339 332 337 328 224 237 169 136 169 182 192 188 193 192 198 196 194 201 213 211 222 227 225 227 237 251 244 233 242 257 264 250 219 280 44 55 33 69 64 2 164 191 193 193 198
345 340 329 316 303 275 237 209 197 184 187 196 191 190 184 185 192 198 206 208 211 225 235 241 235 236 235 248 236 228 238 246 246 242 216 201 98 54 69 80 92 79 113 139 163 176 196
346 339 320 298 278 259 232 229 232 212 216 210 196 184 193 185 196 195 198 205 219 224 237 239 237 232 231 232 225 218 222 230 246 239 196 195 198 77 59 72 78 87 131 141 152 164 176
345 339 321 287 268 249 232 226 233 237 223 204 191 191 196 199 205 202 204 208 215 223 239 240 245 243 232 221 218 220 223 227 224 209 200 186 195 198 208 124 147 128 134 136 156 194 181
345 339 322 283 260 240 229 224 233 224 198 214 208 205 204 205 204 205 206 208 215 226 234 229 249 233 217 207 211 217 218 227 224 221 203 196 187 205 200 208 231 162 163 184 212 209 194
345 340 325 275 253 240 230 224 232 220 211 200 190 192 199 202 205 209 213 218 219 230 228 228 250 231 217 205 213 215 211 210 217 224 210 215 209 207 200 218 222 210 206 203 192 177 193